This demonstration page uses our WeatherBlox Daily Observations layout. Learn more.

Left ArrowRight Arrow

39.51506, -84.39828

Hourly Observations for January 8, 2021

Temp ( °F °C ) Dew Point ( °F °C ) Humidity (%) Winds ( mph kmh ) Pressure ( in mb ) Visibility ( mi km ) Precip ( " mm )
12:15 am 00:15 Cloudy 32 0.1 25 -3.7 76 76 NNE 12 19 30.23 1024 10 16.0934 N/A
12:35 am 00:35 Cloudy 32 undefined 25 -3.7 76 76 NNE 12 19 30.22 1023 10 16.0934 N/A
12:55 am 00:55 Cloudy 32 -0.1 26 -3.6 78 78 NNE 10 17 30.22 1023 10 16.0934 N/A
1:15 am 01:15 Cloudy 32 -0.1 26 -3.5 78 78 NNE 10 17 30.22 1023 10 16.0934 N/A
1:35 am 01:35 Cloudy 32 undefined 25 -3.7 76 76 NNE 10 17 30.21 1023 10 16.0934 N/A
1:55 am 01:55 Cloudy 32 undefined 25 -3.8 76 76 NNE 12 19 30.2 1023 10 16.0934 N/A
2:15 am 02:15 Cloudy 32 undefined 25 -3.8 76 76 NNE 12 19 30.2 1023 10 16.0934 N/A
2:35 am 02:35 Cloudy 32 undefined 25 -3.8 76 76 N 9 15 30.2 1023 10 16.0934 N/A
2:55 am 02:55 Cloudy 32 undefined 26 -3.6 77 77 NNE 8 13 30.2 1023 10 16.0934 N/A
3:15 am 03:15 Cloudy 32 undefined 26 -3.5 78 78 N 10 17 30.2 1023 10 16.0934 N/A
3:35 am 03:35 Cloudy 32 undefined 26 -3.3 79 79 NNE 7 11 30.2 1023 10 16.0934 N/A
3:55 am 03:55 Cloudy 32 -0.1 26 -3.4 79 79 N 8 13 30.19 1022 10 16.0934 N/A
4:15 am 04:15 Cloudy 32 -0.1 26 -3.5 78 78 NNE 9 15 30.19 1022 10 16.0934 N/A
4:35 am 04:35 Cloudy 32 -0.2 26 -3.4 79 79 N 10 17 30.18 1022 10 16.0934 N/A
4:55 am 04:55 Cloudy 31 -0.3 26 -3.4 80 80 N 10 17 30.19 1022 10 16.0934 N/A
5:15 am 05:15 Cloudy 31 -0.5 26 -3.4 81 81 NNE 10 17 30.19 1022 10 16.0934 N/A
5:35 am 05:35 Cloudy 31 -0.5 26 -3.4 81 81 NNE 9 15 30.18 1022 10 16.0934 N/A
5:55 am 05:55 Cloudy 31 -0.5 26 -3.4 81 81 N 9 15 30.17 1022 10 16.0934 N/A
6:15 am 06:15 Cloudy 31 -0.5 26 -3.4 81 81 N 9 15 30.17 1022 10 16.0934 N/A
6:35 am 06:35 Cloudy 31 -0.6 26 -3.4 82 82 N 12 19 30.17 1022 10 16.0934 N/A
6:55 am 06:55 Cloudy 31 -0.7 26 -3.3 83 83 NNE 10 17 30.18 1022 10 16.0934 N/A
7:15 am 07:15 Cloudy 31 -0.6 26 -3.3 82 82 NNE 9 15 30.18 1022 10 16.0934 N/A
7:35 am 07:35 Cloudy 31 -0.6 26 -3.5 81 81 NE 8 13 30.18 1022 10 16.0934 N/A
7:55 am 07:55 Cloudy 31 -0.5 26 -3.5 80 80 NE 6 9 30.18 1022 10 16.0934 N/A
8:15 am 08:15 Cloudy 31 -0.5 26 -3.6 80 80 NNE 6 9 30.19 1022 10 16.0934 N/A
8:35 am 08:35 Cloudy 31 -0.3 26 -3.4 80 80 NNE 6 9 30.2 1023 10 16.0934 N/A
8:55 am 08:55 Cloudy 32 -0.2 26 -3.4 79 79 NNE 6 9 30.19 1022 10 16.0934 N/A
9:15 am 09:15 Cloudy 32 0.1 26 -3.1 79 79 N 8 13 30.2 1023 10 16.0934 N/A
9:35 am 09:35 Cloudy 32 0.2 26 -3.1 79 79 N 10 17 30.19 1023 10 16.0934 N/A
9:55 am 09:55 Cloudy 32 0.2 26 -3.4 77 77 N 9 15 30.19 1023 10 16.0934 N/A
10:15 am 10:15 Cloudy 33 0.3 26 -3.4 76 76 N 9 15 30.18 1022 10 16.0934 N/A
10:35 am 10:35 Cloudy 33 0.5 26 -3.6 74 74 NNE 13 20 30.18 1022 10 16.0934 N/A
10:55 am 10:55 Cloudy 33 0.5 25 -3.7 74 74 N 10 17 30.18 1022 10 16.0934 N/A
11:15 am 11:15 Cloudy 34 1 26 -3.5 72 72 N 10 17 30.18 1022 10 16.0934 N/A
11:35 am 11:35 Cloudy 33 0.8 26 -3.5 73 73 N 15 24 30.17 1022 10 16.0934 N/A
11:55 am 11:55 Cloudy 33 0.6 24 -4.2 71 71 NNE 12 19 30.17 1022 10 16.0934 N/A
12:15 pm 12:15 Cloudy 32 0.1 25 -3.9 75 75 NNW 14 22 30.18 1022 10 16.0934 N/A
12:35 pm 12:35 Cloudy 32 undefined 25 -4.1 74 74 N 13 20 30.17 1022 10 16.0934 N/A
12:55 pm 12:55 Cloudy 32 -0.1 24 -4.2 74 74 N 14 22 30.16 1021 10 16.0934 N/A
1:15 pm 13:15 Cloudy 32 undefined 24 -4.5 72 72 NNE 12 19 30.16 1021 10 16.0934 N/A
1:35 pm 13:35 Cloudy 32 undefined 24 -4.4 73 73 N 13 20 30.15 1021 10 16.0934 N/A
1:55 pm 13:55 Cloudy 32 0.1 24 -4.7 70 70 NNE 10 17 30.14 1021 10 16.0934 N/A
2:15 pm 14:15 Cloudy 32 -0.1 23 -4.9 70 70 N 14 22 30.15 1021 10 16.0934 N/A
2:35 pm 14:35 Cloudy 32 undefined 23 -5 69 69 N 12 19 30.15 1021 10 16.0934 N/A
2:55 pm 14:55 Cloudy 32 -0.1 23 -5 70 70 NNE 12 19 30.15 1021 10 16.0934 N/A
3:15 pm 15:15 Cloudy 31 -0.4 23 -5 71 71 N 12 19 30.16 1021 10 16.0934 N/A
3:35 pm 15:35 Cloudy 31 -0.6 23 -5 72 72 NNE 10 17 30.16 1021 10 16.0934 N/A
3:55 pm 15:55 Cloudy 31 -0.6 23 -4.9 73 73 NNE 10 17 30.16 1021 10 16.0934 N/A
4:15 pm 16:15 Cloudy 31 -0.6 23 -4.9 73 73 N 7 11 30.16 1021 10 16.0934 N/A
4:35 pm 16:35 Cloudy 31 -0.7 23 -5 73 73 N 9 15 30.17 1022 10 16.0934 N/A
4:55 pm 16:55 Cloudy 31 -0.8 23 -5 74 74 N 8 13 30.17 1022 10 16.0934 N/A
5:15 pm 17:15 Cloudy 31 -0.8 23 -5.2 72 72 NNE 10 17 30.17 1022 10 16.0934 N/A
5:35 pm 17:35 Cloudy 31 -0.8 23 -5 74 74 NNE 8 13 30.17 1022 10 16.0934 N/A
5:55 pm 17:55 Cloudy 31 -0.7 23 -4.9 74 74 NNE 8 13 30.18 1022 10 16.0934 N/A
6:15 pm 18:15 Cloudy 31 -0.7 23 -4.9 74 74 N 8 13 30.19 1022 10 16.0934 N/A
6:35 pm 18:35 Cloudy 31 -0.6 24 -4.6 75 75 NNE 7 11 30.19 1022 10 16.0934 N/A
6:55 pm 18:55 Cloudy 31 -0.5 24 -4.7 74 74 N 9 15 30.19 1022 10 16.0934 N/A
7:15 pm 19:15 Cloudy 31 -0.4 24 -4.5 74 74 N 9 15 30.19 1022 10 16.0934 N/A
7:35 pm 19:35 Cloudy 31 -0.5 24 -4.5 75 75 N 10 17 30.19 1022 10 16.0934 N/A
7:55 pm 19:55 Cloudy 31 -0.5 24 -4.6 74 74 N 9 15 30.2 1023 10 16.0934 N/A
8:15 pm 20:15 Cloudy 31 -0.6 24 -4.7 74 74 N 10 17 30.2 1023 10 16.0934 N/A
8:35 pm 20:35 Cloudy 31 -0.6 24 -4.7 74 74 N 8 13 30.2 1023 10 16.0934 N/A
8:55 pm 20:55 Cloudy 31 -0.6 24 -4.5 75 75 N 8 13 30.2 1023 10 16.0934 N/A
9:15 pm 21:15 Cloudy 31 -0.5 24 -4.5 75 75 NNE 9 15 30.2 1023 10 16.0934 N/A
9:35 pm 21:35 Cloudy 31 -0.4 24 -4.5 74 74 NNE 7 11 30.2 1023 10 16.0934 N/A
9:55 pm 21:55 Cloudy 31 -0.5 24 -4.3 76 76 N 6 9 30.2 1023 10 16.0934 N/A
10:15 pm 22:15 Cloudy 31 -0.4 25 -4.1 76 76 N 6 9 30.2 1023 10 16.0934 N/A
10:35 pm 22:35 Cloudy 31 -0.5 25 -4.1 77 77 N 8 13 30.2 1023 10 16.0934 N/A
10:55 pm 22:55 Cloudy 31 -0.5 24 -4.3 76 76 N 8 13 30.2 1023 10 16.0934 N/A
11:15 pm 23:15 Cloudy 31 -0.6 24 -4.2 77 77 N 7 11 30.2 1023 10 16.0934 N/A
11:35 pm 23:35 Cloudy 31 -0.7 24 -4.2 77 77 NW 8 13 30.19 1022 10 16.0934 N/A
11:55 pm 23:55 Cloudy 31 -0.7 24 -4.2 77 77 N 9 15 30.19 1022 10 16.0934 N/A

Powered by AerisWeather